Starlink 2607

operational
NORAD ID: 48391 Int'l Des: 2021-038 Owner: SPXS Country: US Constellation: starlink
LEOCIRCULAR

Über Starlink 2607

Beschreibung wird geladen...

Live-Position

3D-Globus wird geladen...

Nächste Überflüge

Höhenverlauf

Altitude vs Time

uPlot chart will show altitude changes over time

Zweizeiliger Elementsatz

1 48391U 21038AQ 26061.15969471 -.00000867 00000-0 -17704-4 0 9992
2 48391 53.1609 7.7586 0001236 99.3942 260.7198 15.29353245267504
Epoch: 2. März 2026 • Age: 32 hours

Aktueller Status

Höhe 483.5 km
Geschwindigkeit 7.63 km/s
Subsatellitenpunkt 53.28°N, 161.5°E
Startdatum 4. Mai 2021
Alter 4.8 years
Typ internet

Technische Details

Klassifizierung Payload
Masse 260.00 kg
Trockenmasse 248.00 kg
Gesamtmasse 260.00 kg
Länge 0.20 m
Durchmesser 2.80 m
Spannweite 9.00 m
Form Box + pan
Hersteller SPXS
Bus-Typ Starlink
Phasenstatus In Orbit
Besitzer/Staat SPXS/US

Große Konstellationen

Loading constellations...